Regional Weather Roundup
Issued by NWS Charleston, WV

Home | Current Version | Previous Version | Graphics & Text | Print | Product List | Glossary On
Versions: 1 2 3 4 5 6 7 8 9 10 11 12 13 14 15 16 17 18 19 20 21 22 23 24 25 26 27 28 29 30 31 32 33 34 35 36 37 38 39 40 41 42 43 44 45 46 47 48 49 50
000
ASUS41 KRLX 110710
RWRRLX
West Virginia Regional Weather Roundup
National Weather Service Charleston WV
300 AM EDT FRI JUL 11 2014

Note: "fair" indicates few or no clouds below 12,000 feet with no
significant weather and/or obstructions to visibility.

WVZ003-110800-
Northern Panhandle of West Virginia

CITY           SKY/WX    TMP DP  RH WIND       PRES   REMARKS
WHEELING       CLEAR     63  59  87 N3        30.16S
$$

WVZ009-110800-
Northwest West Virginia

CITY           SKY/WX    TMP DP  RH WIND       PRES   REMARKS
PARKERSBURG    CLEAR     61  60  97 CALM      30.17S
$$

WVZ006-110800-
Western West Virginia

CITY           SKY/WX    TMP DP  RH WIND       PRES   REMARKS
HUNTINGTON     CLEAR     64  63  96 CALM      30.14S
$$

WVZ015-110800-
West Central West Virginia

CITY           SKY/WX    TMP DP  RH WIND       PRES   REMARKS
CHARLESTON     FOG       65  65 100 CALM      30.15R VSB 1
$$

WVZ031-110800-
North Central West Virginia

CITY           SKY/WX    TMP DP  RH WIND       PRES   REMARKS
CLARKSBURG     CLEAR     61  59  93 CALM      30.16S
MORGANTOWN     CLEAR     65  59  81 CALM      30.17S
$$

WVZ035-042-045-110800-
South Central West Virginia

CITY           SKY/WX    TMP DP  RH WIND       PRES   REMARKS
BECKLEY        CLEAR     60  57  89 S3        30.22S
BLUEFIELD      CLEAR     64  57  78 W3        30.24S
LEWISBURG      CLEAR     61  58  89 N3        30.22S
$$

WVZ047-110800-
Northern Mountains of West Virginia

CITY           SKY/WX    TMP DP  RH WIND       PRES   REMARKS
ELKINS         FOG       58  55  90 CALM      30.21S VSB 3/4
$$

WVZ052-110800-
Eastern Panhandle of West Virginia

CITY           SKY/WX    TMP DP  RH WIND       PRES   REMARKS
MARTINSBURG    CLEAR     68  62  81 N3        30.16S
PETERSBURG     CLOUDY    63  59  86 W3        30.19S FOG
$$


USA.gov is the U.S. government's official web portal to all federal, state and local government web resources and services.